Skip Page Navigation
NASA JPL Caltech
NASA Logo - Jet Propulsion Laboratory + View the NASA Portal
+ Near-Earth Object (NEO) Program
Search JPL
JPL Home Earth Solar System Stars & Galaxies Technology
JPL Solar System Dynamics
BODIES ORBITS EPHEMERIDES TOOLS PHYSICAL DATA DISCOVERY FAQ SITE MAP
JPL Small-Body Database Browser
Search: [ help ]  
7638 Gladman (1984 UX)
Classification: Main-belt Asteroid          SPK-ID: 2007638
Ephemeris | Orbit Diagram | Orbital Elements | Physical Parameters | Discovery Circumstances ]

[ hide orbit diagram ]
Orbit Diagram
Note: Make sure you have Java enabled on your browser to see the applet. This applet is provided as a 3D orbit visualization tool. The applet was implemented using 2-body methods, and hence should not be used for determining accurate long-term trajectories (over several years or decades) or planetary encounter circumstances. For accurate long-term ephemerides, please instead use our Horizons system.
Orbit Viewer

Additional Notes: the orbits shown in the applet are color coded. The planets are white lines, and the asteroid/comet is a blue line. The bright white line indicates the portion of the orbit that is above the ecliptic plane, and the darker portion is below the ecliptic plane. Likewise for the asteroid/comet orbit, the light blue indicates the portion above the ecliptic plane, and the dark blue the portion below the ecliptic plane.

Orbit Viewer applet originally written and kindly provided by Osamu Ajiki (AstroArts), and further modified by Ron Baalke (JPL).


Orbital Elements at Epoch 2456400.5 (2013-Apr-18.0) TDB
Reference: MPO253417 (heliocentric ecliptic J2000)
 Element Value Uncertainty (1-sigma)   Units 
e 0.3135760 n/a  
a 2.5388864 n/a AU
q 1.7427526 n/a AU
i 6.82059 n/a deg
node 10.03206 n/a deg
peri 22.66241 n/a deg
M 22.34590 n/a deg
tp 2456308.7811350
(2013-Jan-16.28113500)
n/a JED
period 1477.6219087
4.05
n/a
n/a
d
yr
n 0.24363472 n/a deg/d
Q 3.3350202 n/a AU
  Orbit Determination Parameters
   # obs. used (total)      979  
   first obs. used      1984-??-??  
   last obs. used      2013-02-06  
   # oppositions      17  
   planetary ephem.      DE403  
   condition code      0  
   fit RMS      0.57  
   data source      MPC:mpn  
   producer      MPCLINUX  

Additional Information
 T_jup = 3.367 

Ephemeris | Orbit Diagram | Orbital Elements | Physical Parameters | Discovery Circumstances ]

Physical Parameter Table
Parameter Symbol Value Units Sigma Reference Notes
absolute magnitude H 13.2 mag n/a PDS3 (MPC 29896)  
rotation period rot_per 17.3 h n/a Asteroid Lightcurve DataBase (Rev. 2013-May-01) Result based on less than full coverage, so that the period may be wrong by 30 percent or so.
Published Reference List:
[Brinsfield, J.W. (2009) Minor Planet Bul. 36, 64-66.]

7638 Gladman           Discovered 1984 Oct. 26 by E. Bowell at the Anderson Mesa Station of the Lowell Observatory.
Named in honor of Brett Gladman (b. 1966), a Canadian astronomer and dynamicist who has made important contributions to modeling the dynamical evolution of near-earth objects and the transport of meteorites, including those from the moon and Mars. Gladman has also carried out observational surveys of transneptunian objects and in 1997 was codiscoverer of the two irregular satellites of Uranus. Name proposed and citation written by P. Farinella.
NOTE: some special characters may not display properly (any characters within {} are an attempt to place the proper accent above a character)
Reference: 19990728/MPCPages.arcLast Updated: 2010-06-11

Alternate Designations
 1984 UX = 1969 AF = 1988 UN 
Ephemeris | Orbit Diagram | Orbital Elements | Physical Parameters | Discovery Circumstances ]
ABOUT SSD CREDITS/AWARDS PRIVACY/COPYRIGHT GLOSSARY LINKS
FirstGov 2013-Jun-19 17:13 UT
(server date/time)  
NASA Home Page
Site Manager:   Donald K. Yeomans
Webmaster  Alan B. Chamberlin